Regional Weather Roundup
Issued by NWS

Home | Current Version | Previous Version | Graphics & Text | Print | Product List | Glossary On
Versions: 1 2 3 4 5 6 7 8 9 10 11 12 13 14 15 16 17 18 19 20 21 22 23 24 25 26 27 28
000
ASUS45 KSLC 222310
RWRUT

UTAH REGIONAL WEATHER ROUNDUP
NATIONAL WEATHER SERVICE SALT LAKE CITY UT
500 PM MDT WED MAR 22 2017

UTZ001>011-023>025-230000-

NORTHERN UTAH

CITY           SKY/WX    TMP DP  RH WIND       PRES   REMARKS
BRIGHAM CITY     N/A     53  43  67 SE15      29.84S
DUGWAY         CLOUDY    60  44  56 NE14      29.77F
HILL AFB       LGT RAIN  48  41  76 E8        29.85R
LOGAN          RAIN      51  46  83 VRB6      29.85R
OGDEN          LGT RAIN  51  43  74 SE7       29.84R
SALT LAKE CITY LGT RAIN  56  46  69 N15       29.81R
WENDOVER       CLOUDY    59  36  41 NE10      29.79S
HEBER CITY     CLOUDY    63  30  29 SW14      29.77F

$$

UTZ011>015-024>027-230000-

CENTRAL/NORTHEAST UTAH

CITY           SKY/WX    TMP DP  RH WIND       PRES   REMARKS
PROVO AIRPORT  CLOUDY    65  38  36 SW16      29.76F
MOAB/CANYONLAN CLOUDY    71  24  17 S17       29.78F
DELTA          CLOUDY    63  30  29 SW24G30   29.78F
PRICE          CLOUDY    61  28  28 SE17G28   29.83F
RICHFIELD      CLOUDY    54  39  58 S17G33    29.90R
ROOSEVELT      CLOUDY    63  32  31 SW21G26   29.85S
VERNAL         MOSUNNY   64  29  26 SW14      29.82S

$$

UTZ013>016-019>022-027-230000-

SOUTHERN UTAH

CITY           SKY/WX    TMP DP  RH WIND       PRES   REMARKS
BRYCE CANYON   CLOUDY    42  37  82 W7        29.97S
CEDAR CITY     CLOUDY    57  37  47 S16       29.84F
MILFORD        CLOUDY    62  32  32 SW26G37   29.81F
ST GEORGE      CLOUDY    70  34  26 W13       29.78F
HANKSVILLE     CLOUDY    70  27  19 SW16G26   29.81F
KANAB          MOSUNNY   63  43  48 S18       29.87F
BLANDING       CLOUDY    64  26  24 SW12      30.00F

$$

REGIONAL REPORTS     COLORADO/ARIZONA

CITY           SKY/WX    TMP DP  RH WIND       PRES   REMARKS
CRAIG, CO      CLOUDY    64  21  19 S21G35    29.89S
GRAND JUNCTION CLOUDY    70  25  18 SW17G31   29.85F
RIFLE, CO      CLOUDY    65  26  23 SE15      29.94S
MONTROSE, CO   CLOUDY    64  24  21 NE16      29.92F
CORTEZ, CO     CLOUDY    68  18  14 SW12      29.94F
COLORADO CITY  RAIN      63  41  45 S15G26    29.88F
PAGE, AZ       LGT RAIN  66  32  28 VRB5      29.84R
GRAND CANYON   LGT RAIN  55  36  48 S18G26    29.96F
KINGMAN, AZ    PTSUNNY   68  26  20 SW23G29   29.86F
FLAGSTAFF, AZ  CLOUDY    51  37  58 SW10      30.01F

$$

REGIONAL REPORTS    NEVADA/IDAHO/WYOMING

CITY           SKY/WX    TMP DP  RH WIND       PRES   REMARKS
LAS VEGAS, NV  PTSUNNY   72  23  16 SW17G28   29.76F
ELY, NY        CLOUDY    55   7  14 S24G30    29.82F
ELKO, NV       LGT RAIN  38  35  89 SW7       29.91S FOG     WCI  33
POCATELLO, ID  PTSUNNY   51  40  65 NW10      29.87F
BURLEY, ID     CLOUDY    53  34  48 N3        29.84F
FORT BRIDGER,    N/A     52  37  56 N7        29.91F THUNDER
EVANSTON, WY   CLOUDY    46  36  68 N10       29.87F
ROCK SPRINGS,  CLOUDY    56  35  45 NE10      29.85F
KEMMERER, WY     N/A     41  34  75 W6        29.90F

$$




USA.gov is the U.S. government's official web portal to all federal, state and local government web resources and services.